Los Angeles, CA

9:12 PM PST on February 19, 2017 (GMT -0800)
Los Angeles Downtown

Weather History for KCQT - July, 2012

Change the Weather History Date:

Friday, July 13, 2012

  Actual Average Record
Temperature  
Mean Temperature 75 °F 73 °F  
Max Temperature 85 °F 83 °F 98 °F (1990)
Min Temperature 65 °F 64 °F 51 °F (1888)
Degree Days  
Heating Degree Days 0 0  
Month to date heating degree days 0 0  
Since 1 June heating degree days 0 8  
Since 1 July heating degree days 0 0  
Cooling Degree Days 10 8  
Month to date cooling degree days 62 100  
Year to date cooling degree days 254 388  
Since 1 June cooling degree days 160 234  
Growing Degree Days 24 (Base 50)    
Moisture  
Dew Point 62 °F    
Average Humidity 65    
Maximum Humidity 78    
Minimum Humidity 51    
Precipitation  
Precipitation T in 0.00 in 0.02 in (1887)
Month to date precipitation 0.01 0.00  
Year to date precipitation 4.94 10.61  
Since 1 July precipitation 0.01  
Sea Level Pressure  
Sea Level Pressure 29.87 in    
Wind  
Wind Speed 1 mph (West)    
Max Wind Speed 8 mph    
Max Gust Speed 13 mph    
Visibility 9 miles    
Events Rain    
T = Trace of Precipitation, MM = Missing Value Source: NWS Daily Summary

Daily Weather History Graph

Daily Weather History Graph

Search for Another Location

Airport or City:

Trip Planner

Search our weather history database for the weather conditions in past years. The results will help you decide how hot, cold, wet, or windy it might be!

Date:

Astronomy

Jul. 13, 2012 Rise Set
Actual Time 5:51 AM PDT 8:05 PM PDT
Civil Twilight 5:23 AM PDT 8:34 PM PDT
Nautical Twilight 4:48 AM PDT 9:08 PM PDT
Astronomical Twilight 4:10 AM PDT 9:46 PM PDT
Moon 1:28 AM PDT (7/13) 3:41 PM PDT (7/13)
Length of Visible Light 15h 10m
Length of Day
14h 13m
Waning Crescent, 25% of the Moon is Illuminated
Jul 13
Waning Crescent
Jul 18
New
Jul 26
First Quarter
Aug 1
Full
Aug 9
Last Quarter

Hourly Weather History & Observations

Time (PDT) Temp. Heat Index Dew Point Humidity Pressure Visibility Wind Dir Wind Speed Gust Speed Precip Events Conditions
12:47 AM 69.1 °F - 60.1 °F 73% 29.84 in 10.0 mi Calm Calm - N/A   Clear
1:47 AM 70.0 °F - 61.0 °F 73% 29.85 in 10.0 mi Calm Calm - N/A   Partly Cloudy
2:47 AM 69.1 °F - 61.0 °F 75% 29.85 in 10.0 mi Calm Calm - N/A   Clear
3:47 AM 69.1 °F - 61.0 °F 75% 29.84 in 10.0 mi Calm Calm - N/A   Clear
4:47 AM 69.1 °F - 62.1 °F 78% 29.84 in 10.0 mi Calm Calm - N/A   Partly Cloudy
5:47 AM 69.1 °F - 62.1 °F 78% 29.86 in 8.0 mi Calm Calm - N/A   Partly Cloudy
6:47 AM 69.1 °F - 63.0 °F 81% 29.87 in 6.0 mi Calm Calm - N/A   Haze
7:47 AM 69.1 °F - 64.0 °F 84% 29.88 in 6.0 mi Calm Calm - 0.00 in Rain Light Rain
8:47 AM 70.0 °F - 64.9 °F 84% 29.89 in 4.0 mi Calm Calm - 0.00 in Rain Light Rain
9:47 AM 71.1 °F - 64.9 °F 81% 29.90 in 5.0 mi Calm Calm - 0.00 in   Haze
10:47 AM 73.9 °F - 64.9 °F 73% 29.91 in 5.0 mi Calm Calm - N/A   Haze
11:47 AM 78.1 °F - 64.0 °F 62% 29.91 in 6.0 mi Calm Calm - N/A   Haze
12:47 PM 80.1 °F 81.7 °F 64.0 °F 58% 29.89 in 9.0 mi Calm Calm - N/A   Overcast
1:47 PM 82.9 °F 84.4 °F 64.0 °F 53% 29.88 in 10.0 mi Calm Calm - N/A   Clear
2:47 PM 82.9 °F 84.0 °F 63.0 °F 51% 29.86 in 10.0 mi Variable 4.6 mph - N/A   Clear
3:47 PM 82.0 °F 83.0 °F 62.1 °F 51% 29.85 in 10.0 mi Variable 3.5 mph - N/A   Clear
4:47 PM 82.0 °F 83.0 °F 62.1 °F 51% 29.83 in 10.0 mi Variable 3.5 mph - N/A   Clear
5:47 PM 78.1 °F - 61.0 °F 56% 29.81 in 10.0 mi Variable 3.5 mph - N/A   Clear
6:47 PM 73.9 °F - 59.0 °F 59% 29.83 in 10.0 mi Calm Calm - N/A   Clear
7:47 PM 71.1 °F - 59.0 °F 66% 29.85 in 10.0 mi West 4.6 mph - N/A   Clear
8:47 PM 66.9 °F - 59.0 °F 76% 29.87 in 10.0 mi Calm Calm - N/A   Clear
9:47 PM 66.9 °F - 57.9 °F 73% 29.89 in 10.0 mi Calm Calm - N/A   Clear
10:47 PM 66.9 °F - 59.0 °F 76% 29.90 in 10.0 mi Calm Calm - N/A   Clear
11:47 PM 66.0 °F - 59.0 °F 78% 29.91 in 10.0 mi Calm Calm - N/A   Clear